START_TIME,STEP,MOV.,E45,t_acc.,ALAR?,t_acc.,A12,t_acc.,A24,t_acc.
1979-08-07 21:00:24.770 ,0,0,3.,4.8,220.,4.8,0.,4.8,0.,4.8
1979-08-07 21:00:29.570 ,0,0,6.,4.8,220.,4.8,0.,4.8,0.,4.8
1979-08-07 21:00:34.370 ,0,0,1.,4.8,240.,4.8,0.,4.8,0.,4.8
1979-08-07 21:00:39.170 ,0,0,3.,4.8,256.,4.8,0.,4.8,0.,4.8
1979-08-07 21:00:43.970 ,0,0,2.,4.8,228.,4.8,0.,4.8,0.,4.8
1979-08-07 21:00:48.770 ,0,0,6.,4.8,228.,4.8,0.,4.8,0.,4.8
1979-08-07 21:00:53.570 ,0,0,1.,4.8,204.,4.8,0.,4.8,0.,4.8
1979-08-07 21:00:58.370 ,0,0,4.,4.8,272.,4.8,0.,4.8,0.,4.8
1979-08-07 21:01:03.170 ,0,0,1.,4.8,184.,4.8,0.,4.8,0.,4.8
1979-08-07 21:01:07.970 ,0,0,7.,4.8,252.,4.8,0.,4.8,0.,4.8
1979-08-07 21:01:12.760 ,0,0,2.,4.8,248.,4.8,0.,4.8,0.,4.8
1979-08-07 21:01:17.570 ,0,0,6.,4.8,232.,4.8,0.,4.8,0.,4.8
1979-08-07 21:01:22.370 ,0,0,6.,4.8,200.,4.8,0.,4.8,0.,4.8
1979-08-07 21:01:27.170 ,0,0,0.,4.8,224.,4.8,0.,4.8,0.,4.8
1979-08-07 21:01:31.970 ,0,0,5.,4.8,236.,4.8,0.,4.8,0.,4.8
1979-08-07 21:01:36.760 ,1,0,3.,4.8,232.,4.8,0.,4.8,0.,4.8
1979-08-07 21:01:41.570 ,1,0,8.,4.8,224.,4.8,0.,4.8,0.,4.8
1979-08-07 21:01:46.370 ,1,0,3.,4.8,232.,4.8,0.,4.8,0.,4.8
1979-08-07 21:01:51.170 ,1,0,4.,4.8,232.,4.8,0.,4.8,0.,4.8
1979-08-07 21:01:55.970 ,1,0,4.,4.8,272.,4.8,0.,4.8,0.,4.8
1979-08-07 21:02:00.760 ,1,0,4.,4.8,216.,4.8,0.,4.8,0.,4.8
1979-08-07 21:02:05.570 ,1,0,3.,4.8,248.,4.8,0.,4.8,0.,4.8
1979-08-07 21:02:10.370 ,1,0,3.,4.8,232.,4.8,0.,4.8,0.,4.8
1979-08-07 21:02:15.170 ,1,0,6.,4.8,216.,4.8,0.,4.8,0.,4.8
1979-08-07 21:02:19.970 ,1,0,4.,4.8,200.,4.8,0.,4.8,0.,4.8
1979-08-07 21:02:24.760 ,2,0,4.,4.8,220.,4.8,0.,4.8,0.,4.8
1979-08-07 21:02:29.570 ,2,0,5.,4.8,220.,4.8,0.,4.8,0.,4.8
1979-08-07 21:02:34.370 ,2,0,2.,4.8,216.,4.8,0.,4.8,0.,4.8
1979-08-07 21:02:39.170 ,2,0,3.,4.8,264.,4.8,0.,4.8,0.,4.8
1979-08-07 21:02:43.970 ,2,0,1.,4.8,244.,4.8,0.,4.8,0.,4.8
1979-08-07 21:02:48.760 ,2,0,8.,4.8,240.,4.8,0.,4.8,0.,4.8
1979-08-07 21:02:53.570 ,2,0,1.,4.8,240.,4.8,0.,4.8,0.,4.8
1979-08-07 21:02:58.370 ,2,0,4.,4.8,228.,4.8,0.,4.8,0.,4.8
1979-08-07 21:03:03.170 ,2,0,4.,4.8,200.,4.8,0.,4.8,0.,4.8
1979-08-07 21:03:07.970 ,2,0,6.,4.8,240.,4.8,0.,4.8,0.,4.8
1979-08-07 21:03:12.760 ,3,0,6.,4.8,228.,4.8,0.,4.8,0.,4.8
1979-08-07 21:03:17.570 ,3,0,3.,4.8,232.,4.8,0.,4.8,0.,4.8
1979-08-07 21:03:22.370 ,3,0,3.,4.8,256.,4.8,0.,4.8,0.,4.8
1979-08-07 21:03:27.170 ,3,0,2.,4.8,244.,4.8,0.,4.8,0.,4.8
1979-08-07 21:03:31.970 ,3,0,1.,4.8,248.,4.8,0.,4.8,0.,4.8
1979-08-07 21:03:36.760 ,3,0,1.,4.8,232.,4.8,0.,4.8,0.,4.8
1979-08-07 21:03:41.570 ,3,0,2.,4.8,216.,4.8,0.,4.8,0.,4.8
1979-08-07 21:03:46.370 ,3,0,3.,4.8,240.,4.8,0.,4.8,0.,4.8
1979-08-07 21:03:51.170 ,3,0,1.,4.8,244.,4.8,0.,4.8,0.,4.8
1979-08-07 21:03:55.970 ,3,0,6.,4.8,220.,4.8,0.,4.8,0.,4.8
1979-08-07 21:04:00.760 ,4,0,3.,4.8,220.,4.8,0.,4.8,0.,4.8
1979-08-07 21:04:05.570 ,4,0,2.,4.8,232.,4.8,0.,4.8,0.,4.8
1979-08-07 21:04:10.370 ,4,0,3.,4.8,256.,4.8,0.,4.8,0.,4.8
1979-08-07 21:04:15.170 ,4,0,4.,4.8,236.,4.8,0.,4.8,0.,4.8
1979-08-07 21:04:19.960 ,4,0,1.,4.8,244.,4.8,0.,4.8,0.,4.8
1979-08-07 21:04:24.760 ,4,0,3.,4.8,220.,4.8,0.,4.8,0.,4.8
1979-08-07 21:04:29.570 ,4,0,4.,4.8,220.,4.8,0.,4.8,0.,4.8
1979-08-07 21:04:34.360 ,4,0,1.,4.8,264.,4.8,0.,4.8,0.,4.8
1979-08-07 21:04:39.170 ,4,0,7.,4.8,252.,4.8,0.,4.8,0.,4.8
1979-08-07 21:04:43.960 ,4,0,1.,4.8,220.,4.8,0.,4.8,0.,4.8
1979-08-07 21:04:48.760 ,5,0,3.,4.8,208.,4.8,0.,4.8,0.,4.8
1979-08-07 21:04:53.570 ,5,0,1.,4.8,256.,4.8,0.,4.8,0.,4.8
1979-08-07 21:04:58.360 ,5,0,1.,4.8,228.,4.8,0.,4.8,0.,4.8
1979-08-07 21:05:03.170 ,5,0,5.,4.8,236.,4.8,0.,4.8,0.,4.8
1979-08-07 21:05:07.970 ,5,0,2.,4.8,236.,4.8,0.,4.8,0.,4.8
1979-08-07 21:05:12.760 ,5,0,5.,4.8,248.,4.8,0.,4.8,0.,4.8
1979-08-07 21:05:17.570 ,5,0,1.,4.8,232.,4.8,0.,4.8,0.,4.8
1979-08-07 21:05:22.360 ,5,0,2.,4.8,248.,4.8,0.,4.8,0.,4.8
1979-08-07 21:05:27.170 ,5,0,2.,4.8,240.,4.8,0.,4.8,0.,4.8
1979-08-07 21:05:31.960 ,5,0,3.,4.8,220.,4.8,0.,4.8,0.,4.8
1979-08-07 21:05:36.760 ,6,0,1.,4.8,256.,4.8,0.,4.8,0.,4.8
1979-08-07 21:05:41.570 ,6,0,3.,4.8,228.,4.8,0.,4.8,0.,4.8
1979-08-07 21:05:46.360 ,6,0,1.,4.8,220.,4.8,0.,4.8,0.,4.8
1979-08-07 21:05:51.170 ,6,0,1.,4.8,212.,4.8,0.,4.8,0.,4.8
1979-08-07 21:05:55.960 ,6,0,2.,4.8,204.,4.8,0.,4.8,0.,4.8
1979-08-07 21:06:00.760 ,6,0,4.,4.8,236.,4.8,0.,4.8,0.,4.8
1979-08-07 21:06:05.570 ,6,0,3.,4.8,236.,4.8,0.,4.8,0.,4.8
1979-08-07 21:06:10.370 ,6,0,3.,4.8,224.,4.8,0.,4.8,0.,4.8
1979-08-07 21:06:15.170 ,6,0,2.,4.8,248.,4.8,0.,4.8,0.,4.8
1979-08-07 21:06:19.960 ,6,0,2.,4.8,236.,4.8,0.,4.8,0.,4.8
1979-08-07 21:06:24.760 ,7,0,6.,4.8,220.,4.8,0.,4.8,0.,4.8
1979-08-07 21:06:29.570 ,7,0,4.,4.8,232.,4.8,0.,4.8,0.,4.8
1979-08-07 21:06:34.360 ,7,0,2.,4.8,240.,4.8,0.,4.8,0.,4.8
1979-08-07 21:06:39.170 ,7,0,2.,4.8,232.,4.8,0.,4.8,0.,4.8
1979-08-07 21:06:43.960 ,7,0,4.,4.8,192.,4.8,0.,4.8,0.,4.8
1979-08-07 21:06:48.760 ,0,0,4.,4.8,172.,4.8,0.,4.8,0.,4.8
1979-08-07 21:06:53.570 ,0,0,3.,4.8,224.,4.8,0.,4.8,0.,4.8
1979-08-07 21:06:58.360 ,0,0,,0,,0,,0,,0
1979-08-07 21:07:03.170 ,0,0,,0,,0,,0,,0
1979-08-07 21:07:07.960 ,0,0,,0,,0,,0,,0
1979-08-07 21:16:19.960 ,0,0,,0,,0,,0,,0
1979-08-07 21:16:24.760 ,0,0,,0,,0,,0,,0
1979-08-07 21:16:29.570 ,0,0,,0,,0,,0,,0
1979-08-07 21:16:34.360 ,0,0,,0,,0,,0,,0
1979-08-07 21:16:39.160 ,0,0,3.,4.8,224.,4.8,0.,4.8,0.,4.8
1979-08-07 21:16:24.770 ,7,1,0.,4.8,220.,4.8,0.,4.8,0.,4.8
1979-08-07 21:16:29.570 ,7,1,4.,4.8,204.,4.8,0.,4.8,0.,4.8
1979-08-07 21:16:34.370 ,7,1,5.,4.8,244.,4.8,0.,4.8,0.,4.8
1979-08-07 21:16:39.170 ,7,1,1.,4.8,208.,4.8,0.,4.8,0.,4.8
1979-08-07 21:16:43.970 ,7,1,5.,4.8,208.,4.8,0.,4.8,1.,4.8
1979-08-07 21:16:48.770 ,3,1,1.,4.8,224.,4.8,0.,4.8,0.,4.8
1979-08-07 21:16:53.570 ,3,1,3.,4.8,220.,4.8,0.,4.8,0.,4.8
1979-08-07 21:16:58.370 ,3,1,4.,4.8,236.,4.8,0.,4.8,0.,4.8
1979-08-07 21:17:03.170 ,3,1,4.,4.8,208.,4.8,0.,4.8,0.,4.8
1979-08-07 21:17:07.970 ,3,1,2.,4.8,184.,4.8,0.,4.8,0.,4.8
1979-08-07 21:17:12.770 ,0,1,1.,4.8,212.,4.8,0.,4.8,0.,4.8
1979-08-07 21:17:17.560 ,0,1,5.,4.8,200.,4.8,0.,4.8,0.,4.8
1979-08-07 21:17:22.360 ,0,1,7.,4.8,208.,4.8,0.,4.8,0.,4.8
1979-08-07 21:17:27.160 ,0,1,3.,4.8,200.,4.8,0.,4.8,0.,4.8
1979-08-07 21:17:31.960 ,0,1,1.,4.8,216.,4.8,0.,4.8,0.,4.8
1979-08-07 21:17:36.770 ,0,0,4.,4.8,216.,4.8,0.,4.8,0.,4.8
1979-08-07 21:17:41.560 ,0,0,3.,4.8,212.,4.8,0.,4.8,0.,4.8
1979-08-07 21:17:46.360 ,0,0,1.,4.8,184.,4.8,0.,4.8,0.,4.8
1979-08-07 21:17:51.160 ,0,0,0.,4.8,208.,4.8,0.,4.8,0.,4.8
1979-08-07 21:17:55.960 ,0,0,2.,4.8,220.,4.8,0.,4.8,0.,4.8
1979-08-07 21:18:00.770 ,0,0,1.,4.8,208.,4.8,0.,4.8,0.,4.8
1979-08-07 21:18:05.560 ,0,0,2.,4.8,212.,4.8,0.,4.8,0.,4.8
1979-08-07 21:18:10.360 ,0,0,4.,4.8,236.,4.8,0.,4.8,0.,4.8
1979-08-07 21:18:15.160 ,0,0,2.,4.8,228.,4.8,0.,4.8,0.,4.8
1979-08-07 21:18:19.960 ,0,0,2.,4.8,216.,4.8,0.,4.8,0.,4.8
1979-08-07 21:18:24.760 ,5,0,3.,4.8,212.,4.8,0.,4.8,0.,4.8
1979-08-07 21:18:29.560 ,5,0,4.,4.8,200.,4.8,0.,4.8,0.,4.8
1979-08-07 21:18:34.360 ,5,0,1.,4.8,232.,4.8,0.,4.8,1.,4.8
1979-08-07 21:18:39.160 ,5,0,3.,4.8,228.,4.8,0.,4.8,0.,4.8
1979-08-07 21:18:43.960 ,5,0,0.,4.8,208.,4.8,0.,4.8,0.,4.8
1979-08-07 21:18:48.760 ,5,0,6.,4.8,228.,4.8,0.,4.8,0.,4.8
1979-08-07 21:18:53.560 ,5,0,4.,4.8,228.,4.8,0.,4.8,0.,4.8
1979-08-07 21:18:58.360 ,5,0,3.,4.8,236.,4.8,0.,4.8,0.,4.8
1979-08-07 21:19:03.160 ,5,0,0.,4.8,196.,4.8,0.,4.8,0.,4.8
1979-08-07 21:19:07.960 ,5,0,1.,4.8,204.,4.8,0.,4.8,0.,4.8
1979-08-07 21:19:12.760 ,4,0,2.,4.8,212.,4.8,0.,4.8,0.,4.8
1979-08-07 21:19:17.560 ,4,0,1.,4.8,236.,4.8,0.,4.8,0.,4.8
1979-08-07 21:19:22.360 ,4,0,2.,4.8,196.,4.8,0.,4.8,0.,4.8
1979-08-07 21:19:27.160 ,4,0,3.,4.8,212.,4.8,0.,4.8,0.,4.8
1979-08-07 21:19:31.960 ,4,0,2.,4.8,228.,4.8,0.,4.8,0.,4.8
1979-08-07 21:19:36.760 ,4,0,1.,4.8,232.,4.8,0.,4.8,0.,4.8
1979-08-07 21:19:41.560 ,4,0,3.,4.8,216.,4.8,0.,4.8,0.,4.8
1979-08-07 21:19:46.360 ,4,0,3.,4.8,216.,4.8,0.,4.8,0.,4.8
1979-08-07 21:19:51.160 ,4,0,2.,4.8,216.,4.8,0.,4.8,0.,4.8
1979-08-07 21:19:55.960 ,4,0,1.,4.8,228.,4.8,0.,4.8,0.,4.8
1979-08-07 21:20:00.760 ,3,0,3.,4.8,240.,4.8,0.,4.8,0.,4.8
1979-08-07 21:20:05.560 ,3,0,4.,4.8,244.,4.8,0.,4.8,0.,4.8
1979-08-07 21:20:10.360 ,3,0,0.,4.8,228.,4.8,0.,4.8,0.,4.8
1979-08-07 21:20:15.160 ,3,0,2.,4.8,200.,4.8,0.,4.8,0.,4.8
1979-08-07 21:20:19.960 ,3,0,3.,4.8,232.,4.8,0.,4.8,0.,4.8
1979-08-07 21:20:24.760 ,3,0,3.,4.8,240.,4.8,0.,4.8,0.,4.8
1979-08-07 21:20:29.560 ,3,0,1.,4.8,216.,4.8,0.,4.8,0.,4.8
1979-08-07 21:20:34.360 ,3,0,1.,4.8,220.,4.8,0.,4.8,0.,4.8
1979-08-07 21:20:39.160 ,3,0,1.,4.8,224.,4.8,0.,4.8,0.,4.8
1979-08-07 21:20:43.960 ,3,0,0.,4.8,236.,4.8,0.,4.8,0.,4.8
1979-08-07 21:20:48.760 ,2,0,4.,4.8,232.,4.8,0.,4.8,0.,4.8
1979-08-07 21:20:53.560 ,2,0,1.,4.8,236.,4.8,0.,4.8,0.,4.8
1979-08-07 21:20:58.360 ,2,0,0.,4.8,232.,4.8,0.,4.8,0.,4.8
1979-08-07 21:21:03.160 ,2,0,3.,4.8,200.,4.8,0.,4.8,0.,4.8
1979-08-07 21:21:07.960 ,2,0,2.,4.8,216.,4.8,0.,4.8,0.,4.8
1979-08-07 21:21:12.760 ,2,0,6.,4.8,200.,4.8,0.,4.8,0.,4.8
1979-08-07 21:21:17.560 ,2,0,0.,4.8,220.,4.8,0.,4.8,0.,4.8
1979-08-07 21:21:22.360 ,2,0,0.,4.8,204.,4.8,0.,4.8,0.,4.8
1979-08-07 21:21:27.160 ,2,0,3.,4.8,232.,4.8,0.,4.8,0.,4.8
1979-08-07 21:21:31.960 ,2,0,1.,4.8,196.,4.8,0.,4.8,0.,4.8
1979-08-07 21:21:36.760 ,1,0,1.,4.8,200.,4.8,0.,4.8,0.,4.8
1979-08-07 21:21:41.560 ,1,0,2.,4.8,192.,4.8,0.,4.8,0.,4.8
1979-08-07 21:21:46.360 ,1,0,5.,4.8,208.,4.8,0.,4.8,0.,4.8
1979-08-07 21:21:51.160 ,1,0,0.,4.8,196.,4.8,0.,4.8,0.,4.8
1979-08-07 21:21:55.960 ,1,0,2.,4.8,208.,4.8,0.,4.8,0.,4.8
1979-08-07 21:22:00.760 ,1,0,4.,4.8,212.,4.8,0.,4.8,0.,4.8
1979-08-07 21:22:05.560 ,1,0,3.,4.8,204.,4.8,0.,4.8,0.,4.8
1979-08-07 21:22:10.360 ,1,0,2.,4.8,192.,4.8,0.,4.8,0.,4.8
1979-08-07 21:22:15.160 ,1,0,2.,4.8,224.,4.8,0.,4.8,0.,4.8
1979-08-07 21:22:19.960 ,1,0,3.,4.8,212.,4.8,0.,4.8,0.,4.8
1979-08-07 21:22:24.760 ,0,0,2.,4.8,188.,4.8,0.,4.8,0.,4.8
1979-08-07 21:22:29.560 ,0,0,2.,4.8,228.,4.8,0.,4.8,0.,4.8
1979-08-07 21:22:34.360 ,0,0,4.,4.8,224.,4.8,0.,4.8,0.,4.8
1979-08-07 21:22:39.160 ,0,0,3.,4.8,208.,4.8,0.,4.8,0.,4.8
1979-08-07 21:22:43.960 ,0,0,1.,4.8,212.,4.8,0.,4.8,0.,4.8
1979-08-07 21:22:48.760 ,0,0,3.,4.8,204.,4.8,0.,4.8,0.,4.8
1979-08-07 21:22:53.560 ,0,0,0.,4.8,200.,4.8,0.,4.8,0.,4.8
1979-08-07 21:22:58.360 ,0,0,1.,4.8,196.,4.8,0.,4.8,0.,4.8
1979-08-07 21:23:03.160 ,0,0,2.,4.8,192.,4.8,0.,4.8,0.,4.8
1979-08-07 21:23:07.960 ,0,0,0.,4.8,212.,4.8,0.,4.8,0.,4.8
1979-08-07 21:23:12.760 ,0,0,1.,4.8,192.,4.8,0.,4.8,0.,4.8
1979-08-07 21:23:17.560 ,0,0,2.,4.8,208.,4.8,0.,4.8,0.,4.8
1979-08-07 21:23:22.360 ,0,0,3.,4.8,208.,4.8,0.,4.8,0.,4.8
1979-08-07 21:23:27.160 ,0,0,4.,4.8,208.,4.8,0.,4.8,0.,4.8
1979-08-07 21:23:31.960 ,0,0,4.,4.8,216.,4.8,0.,4.8,0.,4.8
1979-08-07 21:23:36.760 ,0,0,0.,4.8,240.,4.8,0.,4.8,0.,4.8
1979-08-07 21:23:41.560 ,0,0,0.,4.8,216.,4.8,0.,4.8,0.,4.8
1979-08-07 21:23:46.360 ,0,0,4.,4.8,220.,4.8,0.,4.8,0.,4.8
1979-08-07 21:23:51.160 ,0,0,4.,4.8,252.,4.8,0.,4.8,0.,4.8
1979-08-07 21:23:55.960 ,0,0,2.,4.8,236.,4.8,0.,4.8,0.,4.8
1979-08-07 21:24:00.760 ,1,0,2.,4.8,228.,4.8,0.,4.8,0.,4.8
1979-08-07 21:24:05.560 ,1,0,1.,4.8,212.,4.8,0.,4.8,0.,4.8
1979-08-07 21:24:10.360 ,1,0,4.,4.8,208.,4.8,0.,4.8,0.,4.8
1979-08-07 21:24:15.160 ,1,0,2.,4.8,204.,4.8,0.,4.8,0.,4.8
1979-08-07 21:24:19.960 ,1,0,3.,4.8,236.,4.8,0.,4.8,0.,4.8
1979-08-07 21:24:24.760 ,1,0,4.,4.8,212.,4.8,0.,4.8,0.,4.8
1979-08-07 21:24:29.560 ,1,0,1.,4.8,192.,4.8,0.,4.8,0.,4.8
1979-08-07 21:24:34.360 ,1,0,1.,4.8,204.,4.8,0.,4.8,0.,4.8
1979-08-07 21:24:39.160 ,1,0,5.,4.8,248.,4.8,0.,4.8,0.,4.8
1979-08-07 21:24:43.960 ,1,0,0.,4.8,216.,4.8,0.,4.8,0.,4.8
1979-08-07 21:24:48.760 ,2,0,0.,4.8,196.,4.8,0.,4.8,0.,4.8
1979-08-07 21:24:53.560 ,2,0,1.,4.8,196.,4.8,0.,4.8,0.,4.8
1979-08-07 21:24:58.360 ,2,0,0.,4.8,212.,4.8,0.,4.8,0.,4.8
1979-08-07 21:25:03.160 ,2,0,5.,4.8,240.,4.8,0.,4.8,0.,4.8
1979-08-07 21:25:07.960 ,2,0,2.,4.8,192.,4.8,0.,4.8,0.,4.8
1979-08-07 21:25:12.760 ,2,0,2.,4.8,208.,4.8,0.,4.8,0.,4.8
1979-08-07 21:25:17.560 ,2,0,2.,4.8,200.,4.8,0.,4.8,0.,4.8
1979-08-07 21:25:22.360 ,2,0,0.,4.8,196.,4.8,0.,4.8,0.,4.8
1979-08-07 21:25:27.160 ,2,0,2.,4.8,208.,4.8,0.,4.8,0.,4.8
1979-08-07 21:25:31.960 ,2,0,5.,4.8,196.,4.8,0.,4.8,0.,4.8
1979-08-07 21:25:36.760 ,3,0,7.,4.8,228.,4.8,0.,4.8,0.,4.8
1979-08-07 21:25:41.560 ,3,0,2.,4.8,212.,4.8,0.,4.8,0.,4.8
1979-08-07 21:25:46.360 ,3,0,2.,4.8,220.,4.8,0.,4.8,0.,4.8
1979-08-07 21:25:51.160 ,3,0,1.,4.8,204.,4.8,0.,4.8,0.,4.8
1979-08-07 21:25:55.960 ,3,0,2.,4.8,228.,4.8,0.,4.8,0.,4.8
1979-08-07 21:26:00.760 ,3,0,2.,4.8,236.,4.8,0.,4.8,0.,4.8
1979-08-07 21:26:05.560 ,3,0,0.,4.8,196.,4.8,0.,4.8,0.,4.8
1979-08-07 21:26:10.360 ,3,0,2.,4.8,220.,4.8,0.,4.8,0.,4.8
1979-08-07 21:26:15.160 ,3,0,3.,4.8,224.,4.8,0.,4.8,0.,4.8
1979-08-07 21:26:19.960 ,3,0,0.,4.8,224.,4.8,0.,4.8,0.,4.8
1979-08-07 21:26:24.760 ,4,0,4.,4.8,212.,4.8,0.,4.8,0.,4.8
1979-08-07 21:26:29.560 ,4,0,1.,4.8,216.,4.8,0.,4.8,0.,4.8
1979-08-07 21:26:34.360 ,4,0,4.,4.8,216.,4.8,0.,4.8,0.,4.8
1979-08-07 21:26:39.160 ,4,0,2.,4.8,248.,4.8,0.,4.8,0.,4.8
1979-08-07 21:26:43.960 ,4,0,1.,4.8,232.,4.8,0.,4.8,0.,4.8
1979-08-07 21:26:48.760 ,4,0,2.,4.8,220.,4.8,0.,4.8,0.,4.8
1979-08-07 21:26:53.560 ,4,0,3.,4.8,212.,4.8,0.,4.8,0.,4.8
1979-08-07 21:26:58.360 ,4,0,2.,4.8,208.,4.8,0.,4.8,0.,4.8
1979-08-07 21:27:03.160 ,4,0,2.,4.8,216.,4.8,0.,4.8,0.,4.8
1979-08-07 21:27:07.960 ,4,0,2.,4.8,228.,4.8,0.,4.8,0.,4.8
1979-08-07 21:27:12.760 ,5,0,2.,4.8,204.,4.8,0.,4.8,0.,4.8
1979-08-07 21:27:17.560 ,5,0,2.,4.8,200.,4.8,0.,4.8,0.,4.8
1979-08-07 21:27:22.360 ,5,0,2.,4.8,248.,4.8,0.,4.8,0.,4.8
1979-08-07 21:27:27.160 ,5,0,1.,4.8,216.,4.8,0.,4.8,0.,4.8
1979-08-07 21:27:31.960 ,5,0,5.,4.8,216.,4.8,0.,4.8,0.,4.8
1979-08-07 21:27:36.760 ,5,0,3.,4.8,232.,4.8,0.,4.8,0.,4.8
1979-08-07 21:27:41.560 ,5,0,4.,4.8,228.,4.8,0.,4.8,0.,4.8
1979-08-07 21:27:46.360 ,5,0,2.,4.8,212.,4.8,0.,4.8,0.,4.8
1979-08-07 21:27:51.160 ,5,0,1.,4.8,208.,4.8,0.,4.8,0.,4.8
1979-08-07 21:27:55.960 ,5,0,4.,4.8,236.,4.8,0.,4.8,0.,4.8
1979-08-07 21:28:00.760 ,6,0,1.,4.8,212.,4.8,0.,4.8,0.,4.8
1979-08-07 21:28:05.560 ,6,0,1.,4.8,228.,4.8,0.,4.8,0.,4.8
1979-08-07 21:28:10.360 ,6,0,3.,4.8,240.,4.8,0.,4.8,0.,4.8
1979-08-07 21:28:15.160 ,6,0,2.,4.8,224.,4.8,0.,4.8,0.,4.8
1979-08-07 21:28:19.960 ,6,0,1.,4.8,228.,4.8,0.,4.8,0.,4.8
1979-08-07 21:28:24.760 ,6,0,5.,4.8,256.,4.8,0.,4.8,0.,4.8
1979-08-07 21:28:29.560 ,6,0,1.,4.8,212.,4.8,0.,4.8,0.,4.8
1979-08-07 21:28:34.360 ,6,0,2.,4.8,236.,4.8,0.,4.8,0.,4.8
1979-08-07 21:28:39.160 ,6,0,6.,4.8,232.,4.8,0.,4.8,0.,4.8
1979-08-07 21:28:43.960 ,6,0,6.,4.8,240.,4.8,0.,4.8,0.,4.8
1979-08-07 21:28:48.760 ,7,0,4.,4.8,220.,4.8,0.,4.8,0.,4.8
1979-08-07 21:28:53.560 ,7,0,2.,4.8,208.,4.8,0.,4.8,0.,4.8
1979-08-07 21:28:58.360 ,7,0,3.,4.8,236.,4.8,0.,4.8,0.,4.8
1979-08-07 21:29:03.160 ,7,0,7.,4.8,240.,4.8,0.,4.8,0.,4.8
1979-08-07 21:29:07.960 ,7,0,6.,4.8,212.,4.8,0.,4.8,0.,4.8
1979-08-07 21:29:12.760 ,7,0,4.,4.8,236.,4.8,0.,4.8,0.,4.8
1979-08-07 21:29:17.560 ,7,0,0.,4.8,232.,4.8,0.,4.8,0.,4.8
1979-08-07 21:29:22.360 ,7,0,2.,4.8,212.,4.8,0.,4.8,0.,4.8
1979-08-07 21:29:27.160 ,7,0,0.,4.8,252.,4.8,0.,4.8,0.,4.8
1979-08-07 21:29:31.960 ,7,0,2.,4.8,224.,4.8,0.,4.8,0.,4.8
1979-08-07 21:30:24.760 ,0,0,3.,4.8,256.,4.8,0.,4.8,0.,4.8
1979-08-07 21:30:29.560 ,0,0,5.,4.8,244.,4.8,0.,4.8,0.,4.8
1979-08-07 21:30:34.360 ,0,0,6.,4.8,240.,4.8,0.,4.8,0.,4.8
1979-08-07 21:30:39.160 ,0,0,7.,4.8,240.,4.8,0.,4.8,0.,4.8
1979-08-07 21:30:43.960 ,0,0,4.,4.8,256.,4.8,0.,4.8,0.,4.8
1979-08-07 21:30:48.760 ,0,0,1.,4.8,264.,4.8,0.,4.8,0.,4.8
1979-08-07 21:30:53.560 ,0,0,4.,4.8,264.,4.8,0.,4.8,0.,4.8
1979-08-07 21:30:58.360 ,0,0,1.,4.8,264.,4.8,0.,4.8,0.,4.8
1979-08-07 21:31:03.160 ,0,0,3.,4.8,256.,4.8,0.,4.8,0.,4.8
1979-08-07 21:31:07.960 ,0,0,3.,4.8,244.,4.8,0.,4.8,0.,4.8
1979-08-07 21:31:12.760 ,5,0,7.,4.8,256.,4.8,0.,4.8,0.,4.8
1979-08-07 21:31:17.560 ,5,0,6.,4.8,240.,4.8,0.,4.8,0.,4.8
1979-08-07 21:31:22.360 ,5,0,1.,4.8,256.,4.8,0.,4.8,0.,4.8
1979-08-07 21:31:27.160 ,5,0,6.,4.8,244.,4.8,0.,4.8,0.,4.8
1979-08-07 21:31:31.960 ,5,0,2.,4.8,244.,4.8,0.,4.8,0.,4.8
1979-08-07 21:31:36.760 ,5,0,2.,4.8,236.,4.8,0.,4.8,0.,4.8
1979-08-07 21:31:41.560 ,5,0,1.,4.8,252.,4.8,0.,4.8,0.,4.8
1979-08-07 21:31:46.360 ,5,0,4.,4.8,280.,4.8,0.,4.8,0.,4.8
1979-08-07 21:31:51.160 ,5,0,5.,4.8,248.,4.8,0.,4.8,0.,4.8
1979-08-07 21:31:55.960 ,5,0,2.,4.8,256.,4.8,0.,4.8,0.,4.8
1979-08-07 21:32:00.760 ,4,0,3.,4.8,252.,4.8,0.,4.8,0.,4.8
1979-08-07 21:32:05.560 ,4,0,3.,4.8,236.,4.8,0.,4.8,0.,4.8
1979-08-07 21:32:10.360 ,4,0,0.,4.8,256.,4.8,0.,4.8,0.,4.8
1979-08-07 21:32:15.160 ,4,0,1.,4.8,228.,4.8,0.,4.8,0.,4.8
1979-08-07 21:32:19.960 ,4,0,3.,4.8,252.,4.8,0.,4.8,0.,4.8
1979-08-07 21:32:24.760 ,4,0,1.,4.8,204.,4.8,0.,4.8,0.,4.8
1979-08-07 21:32:29.560 ,4,0,4.,4.8,272.,4.8,0.,4.8,0.,4.8
1979-08-07 21:32:34.360 ,4,0,4.,4.8,232.,4.8,1.,4.8,0.,4.8
1979-08-07 21:32:39.160 ,4,0,0.,4.8,252.,4.8,0.,4.8,0.,4.8
1979-08-07 21:32:43.960 ,4,0,2.,4.8,244.,4.8,0.,4.8,0.,4.8
1979-08-07 21:32:48.760 ,3,0,1.,4.8,264.,4.8,0.,4.8,0.,4.8
1979-08-07 21:32:53.560 ,3,0,4.,4.8,272.,4.8,0.,4.8,0.,4.8
1979-08-07 21:32:58.360 ,3,0,1.,4.8,248.,4.8,0.,4.8,0.,4.8
1979-08-07 21:33:03.160 ,3,0,1.,4.8,232.,4.8,0.,4.8,0.,4.8
1979-08-07 21:33:07.960 ,3,0,3.,4.8,228.,4.8,0.,4.8,0.,4.8
1979-08-07 21:33:12.760 ,3,0,1.,4.8,264.,4.8,0.,4.8,0.,4.8
1979-08-07 21:33:17.560 ,3,0,2.,4.8,236.,4.8,0.,4.8,0.,4.8
1979-08-07 21:33:22.360 ,3,0,0.,4.8,248.,4.8,0.,4.8,0.,4.8
1979-08-07 21:33:27.160 ,3,0,3.,4.8,240.,4.8,0.,4.8,0.,4.8
1979-08-07 21:33:31.960 ,3,0,2.,4.8,228.,4.8,0.,4.8,0.,4.8
1979-08-07 21:33:36.760 ,2,0,2.,4.8,244.,4.8,0.,4.8,0.,4.8
1979-08-07 21:33:41.560 ,2,0,1.,4.8,252.,4.8,0.,4.8,0.,4.8
1979-08-07 21:33:46.360 ,2,0,2.,4.8,256.,4.8,0.,4.8,0.,4.8
1979-08-07 21:33:51.160 ,2,0,2.,4.8,252.,4.8,0.,4.8,0.,4.8
1979-08-07 21:33:55.960 ,2,0,2.,4.8,248.,4.8,0.,4.8,0.,4.8
1979-08-07 21:34:00.760 ,2,0,1.,4.8,240.,4.8,0.,4.8,0.,4.8
1979-08-07 21:34:05.560 ,2,0,2.,4.8,240.,4.8,0.,4.8,0.,4.8
1979-08-07 21:34:10.360 ,2,0,6.,4.8,228.,4.8,0.,4.8,0.,4.8
1979-08-07 21:34:15.160 ,2,0,6.,4.8,272.,4.8,0.,4.8,0.,4.8
1979-08-07 21:34:19.960 ,2,0,3.,4.8,264.,4.8,0.,4.8,0.,4.8
1979-08-07 21:34:24.760 ,1,0,3.,4.8,256.,4.8,0.,4.8,0.,4.8
1979-08-07 21:34:29.560 ,1,0,8.,4.8,288.,4.8,0.,4.8,0.,4.8
1979-08-07 21:34:34.360 ,1,0,3.,4.8,236.,4.8,0.,4.8,0.,4.8
1979-08-07 21:34:39.160 ,1,0,4.,4.8,248.,4.8,0.,4.8,0.,4.8
1979-08-07 21:34:43.960 ,1,0,5.,4.8,228.,4.8,0.,4.8,0.,4.8
1979-08-07 21:34:48.760 ,1,0,1.,4.8,272.,4.8,0.,4.8,0.,4.8
1979-08-07 21:34:53.560 ,1,0,7.,4.8,244.,4.8,0.,4.8,0.,4.8
1979-08-07 21:34:58.360 ,1,0,5.,4.8,236.,4.8,0.,4.8,0.,4.8
1979-08-07 21:35:03.160 ,1,0,4.,4.8,200.,4.8,0.,4.8,0.,4.8
1979-08-07 21:35:07.960 ,1,0,3.,4.8,248.,4.8,0.,4.8,0.,4.8
1979-08-07 21:35:12.760 ,0,0,3.,4.8,252.,4.8,0.,4.8,0.,4.8
1979-08-07 21:35:17.560 ,0,0,2.,4.8,280.,4.8,0.,4.8,0.,4.8
1979-08-07 21:35:22.360 ,0,0,4.,4.8,272.,4.8,0.,4.8,0.,4.8
1979-08-07 21:35:27.160 ,0,0,4.,4.8,244.,4.8,0.,4.8,0.,4.8
1979-08-07 21:35:31.960 ,0,0,3.,4.8,280.,4.8,0.,4.8,0.,4.8
1979-08-07 21:35:36.760 ,0,0,5.,4.8,240.,4.8,0.,4.8,0.,4.8
1979-08-07 21:35:41.560 ,0,0,1.,4.8,256.,4.8,0.,4.8,0.,4.8
1979-08-07 21:35:46.360 ,0,0,2.,4.8,248.,4.8,0.,4.8,0.,4.8
1979-08-07 21:35:51.160 ,0,0,2.,4.8,236.,4.8,0.,4.8,0.,4.8
1979-08-07 21:35:55.960 ,0,0,4.,4.8,272.,4.8,0.,4.8,0.,4.8
1979-08-07 21:36:00.760 ,0,0,3.,4.8,264.,4.8,0.,4.8,0.,4.8
1979-08-07 21:36:05.560 ,0,0,3.,4.8,272.,4.8,0.,4.8,0.,4.8
1979-08-07 21:36:10.360 ,0,0,3.,4.8,280.,4.8,0.,4.8,0.,4.8
1979-08-07 21:36:15.160 ,0,0,9.,4.8,248.,4.8,0.,4.8,0.,4.8
1979-08-07 21:36:19.960 ,0,0,3.,4.8,264.,4.8,0.,4.8,0.,4.8
1979-08-07 21:36:24.760 ,0,0,1.,4.8,256.,4.8,0.,4.8,0.,4.8
1979-08-07 21:36:29.560 ,0,0,3.,4.8,252.,4.8,0.,4.8,0.,4.8
1979-08-07 21:36:34.360 ,0,0,5.,4.8,248.,4.8,0.,4.8,0.,4.8
1979-08-07 21:36:39.160 ,0,0,8.,4.8,236.,4.8,0.,4.8,0.,4.8
1979-08-07 21:36:43.960 ,0,0,2.,4.8,256.,4.8,0.,4.8,0.,4.8
1979-08-07 21:36:48.760 ,1,0,5.,4.8,240.,4.8,0.,4.8,0.,4.8
1979-08-07 21:36:53.560 ,1,0,2.,4.8,236.,4.8,0.,4.8,0.,4.8
1979-08-07 21:36:58.360 ,1,0,3.,4.8,240.,4.8,0.,4.8,0.,4.8
1979-08-07 21:37:03.160 ,1,0,5.,4.8,252.,4.8,0.,4.8,0.,4.8
1979-08-07 21:37:07.960 ,1,0,8.,4.8,256.,4.8,0.,4.8,0.,4.8
1979-08-07 21:37:12.760 ,1,0,5.,4.8,272.,4.8,0.,4.8,0.,4.8
1979-08-07 21:37:17.560 ,1,0,4.,4.8,264.,4.8,0.,4.8,0.,4.8
1979-08-07 21:37:22.360 ,1,0,3.,4.8,240.,4.8,0.,4.8,0.,4.8
1979-08-07 21:37:27.160 ,1,0,6.,4.8,272.,4.8,0.,4.8,0.,4.8
1979-08-07 21:37:31.960 ,1,0,3.,4.8,228.,4.8,1.,4.8,0.,4.8
1979-08-07 21:37:36.760 ,2,0,2.,4.8,280.,4.8,0.,4.8,0.,4.8
1979-08-07 21:37:41.560 ,2,0,3.,4.8,280.,4.8,0.,4.8,0.,4.8
1979-08-07 21:37:46.360 ,2,0,1.,4.8,256.,4.8,0.,4.8,0.,4.8
1979-08-07 21:37:51.160 ,2,0,5.,4.8,272.,4.8,0.,4.8,0.,4.8
1979-08-07 21:37:55.960 ,2,0,4.,4.8,240.,4.8,0.,4.8,0.,4.8
1979-08-07 21:38:00.760 ,2,0,6.,4.8,244.,4.8,0.,4.8,0.,4.8
1979-08-07 21:38:05.560 ,2,0,4.,4.8,288.,4.8,0.,4.8,0.,4.8
1979-08-07 21:38:10.360 ,2,0,2.,4.8,244.,4.8,0.,4.8,0.,4.8
1979-08-07 21:38:15.160 ,2,0,3.,4.8,264.,4.8,0.,4.8,0.,4.8
1979-08-07 21:38:19.960 ,2,0,4.,4.8,252.,4.8,0.,4.8,0.,4.8
1979-08-07 21:38:24.760 ,3,0,4.,4.8,272.,4.8,0.,4.8,0.,4.8
1979-08-07 21:38:29.560 ,3,0,7.,4.8,240.,4.8,0.,4.8,0.,4.8
1979-08-07 21:38:34.360 ,3,0,3.,4.8,264.,4.8,0.,4.8,0.,4.8
1979-08-07 21:38:39.160 ,3,0,4.,4.8,280.,4.8,0.,4.8,0.,4.8
1979-08-07 21:38:43.960 ,3,0,3.,4.8,272.,4.8,0.,4.8,0.,4.8
1979-08-07 21:38:48.760 ,3,0,0.,4.8,240.,4.8,0.,4.8,0.,4.8
1979-08-07 21:38:53.560 ,3,0,4.,4.8,236.,4.8,0.,4.8,0.,4.8
1979-08-07 21:38:58.360 ,3,0,1.,4.8,248.,4.8,0.,4.8,0.,4.8
1979-08-07 21:39:03.160 ,3,0,3.,4.8,248.,4.8,0.,4.8,0.,4.8
1979-08-07 21:39:07.960 ,3,0,4.,4.8,280.,4.8,0.,4.8,0.,4.8
1979-08-07 21:39:12.760 ,4,0,0.,4.8,264.,4.8,0.,4.8,0.,4.8
1979-08-07 21:39:17.560 ,4,0,2.,4.8,288.,4.8,0.,4.8,0.,4.8
1979-08-07 21:39:22.360 ,4,0,3.,4.8,320.,4.8,0.,4.8,0.,4.8
1979-08-07 21:39:27.160 ,4,0,1.,4.8,296.,4.8,0.,4.8,0.,4.8
1979-08-07 21:39:31.960 ,4,0,5.,4.8,232.,4.8,0.,4.8,1.,4.8
1979-08-07 21:39:36.760 ,4,0,6.,4.8,272.,4.8,0.,4.8,0.,4.8
1979-08-07 21:39:41.560 ,4,0,2.,4.8,264.,4.8,0.,4.8,0.,4.8
1979-08-07 21:39:46.360 ,4,0,9.,4.8,272.,4.8,0.,4.8,0.,4.8
1979-08-07 21:39:51.160 ,4,0,5.,4.8,264.,4.8,0.,4.8,0.,4.8
1979-08-07 21:39:55.960 ,4,0,7.,4.8,280.,4.8,0.,4.8,0.,4.8
1979-08-07 21:40:00.760 ,5,0,2.,4.8,312.,4.8,0.,4.8,0.,4.8
1979-08-07 21:40:05.560 ,5,0,3.,4.8,272.,4.8,0.,4.8,0.,4.8
1979-08-07 21:40:10.360 ,5,0,4.,4.8,296.,4.8,0.,4.8,0.,4.8
1979-08-07 21:40:15.160 ,5,0,7.,4.8,304.,4.8,0.,4.8,0.,4.8
1979-08-07 21:40:19.960 ,5,0,2.,4.8,304.,4.8,0.,4.8,0.,4.8
1979-08-07 21:40:24.760 ,5,0,5.,4.8,288.,4.8,0.,4.8,0.,4.8
1979-08-07 21:40:29.560 ,5,0,5.,4.8,264.,4.8,0.,4.8,0.,4.8
1979-08-07 21:40:34.360 ,5,0,4.,4.8,272.,4.8,0.,4.8,0.,4.8
1979-08-07 21:40:39.160 ,5,0,7.,4.8,280.,4.8,0.,4.8,0.,4.8
1979-08-07 21:40:43.960 ,5,0,7.,4.8,320.,4.8,0.,4.8,0.,4.8
1979-08-07 21:40:48.760 ,6,0,1.,4.8,288.,4.8,0.,4.8,0.,4.8
1979-08-07 21:40:53.560 ,6,0,3.,4.8,244.,4.8,0.,4.8,0.,4.8
1979-08-07 21:40:58.360 ,6,0,3.,4.8,248.,4.8,0.,4.8,0.,4.8
1979-08-07 21:41:03.160 ,6,0,2.,4.8,296.,4.8,0.,4.8,0.,4.8
1979-08-07 21:41:07.960 ,6,0,5.,4.8,264.,4.8,0.,4.8,0.,4.8
1979-08-07 21:41:12.760 ,6,0,3.,4.8,272.,4.8,0.,4.8,0.,4.8
1979-08-07 21:41:17.560 ,6,0,2.,4.8,272.,4.8,0.,4.8,0.,4.8
1979-08-07 21:41:22.360 ,6,0,4.,4.8,228.,4.8,0.,4.8,0.,4.8
1979-08-07 21:41:27.160 ,6,0,3.,4.8,248.,4.8,0.,4.8,0.,4.8
1979-08-07 21:41:31.960 ,6,0,2.,4.8,280.,4.8,0.,4.8,0.,4.8
1979-08-07 21:41:36.760 ,7,0,2.,4.8,224.,4.8,0.,4.8,0.,4.8
1979-08-07 21:41:41.560 ,7,0,2.,4.8,236.,4.8,0.,4.8,0.,4.8
1979-08-07 21:41:46.360 ,7,0,2.,4.8,244.,4.8,0.,4.8,0.,4.8
1979-08-07 21:41:51.160 ,7,0,8.,4.8,228.,4.8,0.,4.8,0.,4.8
1979-08-07 21:41:55.960 ,7,0,3.,4.8,240.,4.8,0.,4.8,1.,4.8